Temp_Advection
nan nan nan nan nan nan nan nan nan nan nan nan nan nan nan nan nan nan nan nan nan nan nan nan nan nan nan nan nan nan nan nan nan nan nan nan nan nan nan nan nan nan nan nan nan
nan 0 -0 -0 -0 -0 -0 -0 0 0 -0 -0 -0 -0 0 0 0 -1 -1 0 -0 -0 -0 0 0 0 0 0 0 -0 0 -0 -0 -0 -0 0 0 -0 0 0 -0 -0 -0 -0 nan
nan -0 -0 -0 -0 -0 -0 -0 -0 0 -0 -0 -0 0 0 0 -0 -1 -0 -0 0 -0 -0 0 0 0 0 0 0 -0 -0 -0 -0 -0 0 0 0 0 -0 -0 -1 -1 -0 -0 nan
nan 0 -0 -0 -0 -0 -0 -0 -0 -0 -0 -0 0 0 0 0 -0 -0 -0 -0 0 -0 -0 0 0 0 0 0 0 -0 -0 -0 0 0 0 0 0 0 -0 -0 -0 -0 0 -0 nan
nan 0 0 0 0 -0 -0 -0 -0 0 0 0 0 0 0 0 -0 -0 -0 0 0 -0 -0 -0 -0 -0 -0 -0 0 0 0 0 0 0 0 -0 0 0 -0 -0 0 0 0 1 nan
nan -0 0 0 0 -0 -0 -0 -0 -0 0 0 0 0 0 -0 -0 -0 -0 0 0 -0 -0 -0 -0 -0 -0 -0 0 0 -0 0 0 0 0 0 -0 0 -0 0 0 1 1 1 nan
nan 0 0 0 0 0 0 -0 0 0 0 0 0 0 -0 -1 -0 -0 -0 0 -0 -0 -0 -0 0 0 0 0 0 0 0 -0 -0 -0 -0 0 0 0 -0 0 0 1 1 1 nan
nan 0 0 0 0 0 0 0 0 -0 0 0 0 0 -0 -0 -0 -0 0 -0 -0 -0 -0 -0 -0 -0 0 0 -0 -0 -0 0 -0 0 -0 0 0 -0 0 1 1 1 0 0 nan
nan 0 0 0 0 0 0 0 -0 0 0 -0 0 -0 -0 -0 -0 -0 -0 -0 -0 -0 -0 -0 -0 0 0 -0 -0 -0 0 -0 -0 0 0 0 0 -0 0 1 0 0 0 0 nan
nan 0 0 0 0 0 0 -0 -0 -0 0 -0 0 -0 -0 -0 -0 -0 -0 -0 -0 -0 0 0 0 -0 -0 0 -0 0 0 -0 0 0 -0 0 0 -0 -0 0 0 0 0 0 nan
nan 0 0 0 0 0 0 -0 0 0 0 -0 0 -0 0 -0 -0 0 -0 -0 -0 0 0 -0 -0 -0 -0 -0 -0 0 0 -0 0 -0 0 0 0 -1 -0 0 -0 -0 -0 0 nan
nan 0 0 -0 -0 0 0 -0 -0 0 0 0 0 0 -0 -0 -0 -0 -0 -0 -0 -0 -0 -0 0 -0 0 0 0 0 0 0 0 -0 0 -0 0 -0 -0 -0 -0 0 0 0 nan
nan 0 0 0 -0 -0 -0 0 -0 -0 0 -0 0 0 0 -0 -0 -0 -0 -0 0 -0 -0 -0 0 -0 0 0 -0 0 0 0 0 -0 -0 -0 -0 0 -0 0 -0 -0 0 0 nan
nan 0 0 0 0 -0 0 0 0 0 0 -0 -0 -0 -0 -0 0 -0 -0 -0 -0 -0 -0 0 -0 0 -0 0 0 -0 0 0 0 -0 0 0 -0 -0 -0 0 0 -0 -0 0 nan
nan -0 0 0 0 -0 -0 0 0 0 0 -1 -0 0 -0 0 -0 -0 0 -0 -0 -0 -0 -0 -0 0 -0 -0 -0 0 -0 -0 -0 -0 0 -0 -0 -0 -0 -0 0 0 -0 0 nan
nan -0 -0 0 0 -0 0 0 0 -1 -0 -0 -0 -0 0 -0 0 0 0 -0 -0 -0 -0 0 -0 -0 0 -0 -0 0 -0 -1 -0 0 -0 -0 0 -1 -0 -0 0 0 -0 0 nan
nan 0 -0 0 0 0 0 0 -0 0 -0 -0 -0 0 0 -0 -0 -0 -0 -0 -0 -0 -0 -0 -0 -0 -0 0 -0 -0 -0 -0 0 0 -0 0 0 -1 -0 0 0 -0 -0 0 nan
nan -0 0 0 0 0 -0 -0 0 -0 0 -0 -0 -0 0 0 -0 -0 -0 -0 -0 -0 -0 0 -0 -0 -0 0 0 -0 -0 -0 0 0 0 -0 -0 -0 0 -0 -0 -0 0 -0 nan
nan -0 0 -0 -0 0 -0 -0 -0 0 -0 -0 0 0 0 -0 -0 -0 -0 0 -0 -0 -0 -0 0 -0 0 -0 0 -0 -0 -0 -0 0 0 -0 -0 -0 -0 -0 -0 -0 0 0 nan
nan 0 0 0 -0 0 -0 0 -0 -0 -0 -0 0 0 0 -0 -0 -0 0 -0 -0 -0 0 0 -0 -0 -0 0 -0 0 0 -0 0 0 0 0 -0 0 -0 0 0 0 0 0 nan
nan 0 0 0 -0 -0 -0 0 -0 0 0 -0 -0 0 0 0 -0 -0 -0 -0 -0 -0 0 0 -0 0 0 0 0 0 -0 -0 0 0 1 0 1 0 0 -0 0 0 0 0 nan
nan 0 0 -0 -0 -0 0 -0 -0 -0 -0 -0 -0 -0 -0 0 -0 0 0 0 -0 0 -0 0 -0 0 -0 0 -0 -0 0 -0 0 0 -0 0 -0 0 -0 -0 0 -0 0 0 nan
nan -0 0 -0 -0 0 -0 0 0 -0 -0 0 -0 -0 -0 -0 -0 0 0 0 -0 0 0 -0 -0 0 -0 0 -0 0 0 -0 -0 0 -0 0 0 -0 -0 0 0 0 0 0 nan
nan -0 -0 -1 -0 -0 0 -0 0 0 0 -0 -0 0 0 -0 -0 -0 -0 -0 -0 -0 0 -0 0 -0 0 0 -0 -0 -0 0 -0 -0 -0 -0 -0 -0 0 0 0 0 0 0 nan
nan -0 -0 -0 -0 0 -0 -0 -0 0 0 -0 0 0 0 -0 0 -0 -0 -0 0 -0 -0 0 -0 -0 -0 -0 -0 0 0 0 0 -0 0 0 0 0 0 -0 -0 0 0 0 nan
nan 0 -0 -0 0 -0 -0 -0 0 0 -0 -0 0 0 0 0 0 0 -0 -0 0 -0 -0 -0 -0 0 -0 -0 0 0 0 0 -0 0 -0 -0 0 0 -0 -0 0 0 0 0 nan
nan nan nan nan nan nan nan nan nan nan nan nan nan nan nan nan nan nan nan nan nan nan nan nan nan nan nan nan nan nan nan nan nan nan nan nan nan nan nan nan nan nan nan nan nan
Wind_Speed
18 18 15 11 9 9 8 6 6 7 9 11 11 10 10 11 12 14 18 13 15 10 5 10 12 10 12 12 9 8 3 4 5 7 4 10 4 6 5 9 7 5 4 3 21
18 16 14 12 11 11 9 6 6 7 7 9 12 12 10 11 11 16 16 15 11 10 7 9 10 11 7 8 8 5 4 9 5 4 2 8 5 14 6 7 4 7 8 7 20
16 19 17 15 18 19 12 7 4 6 8 9 9 10 10 9 6 15 13 17 13 11 8 7 9 10 5 7 7 7 5 4 3 3 2 5 4 8 11 3 10 14 14 15 22
14 15 17 16 19 26 12 6 2 2 5 8 9 9 10 9 4 5 4 18 15 11 10 9 9 7 5 6 6 4 4 2 2 2 4 4 8 5 11 3 7 8 11 17 22
11 12 13 13 18 26 17 4 4 1 3 4 8 11 13 9 7 3 5 19 16 13 12 10 11 6 4 5 6 2 2 2 0 2 4 6 3 3 9 5 5 10 15 18 19
7 11 12 14 15 21 22 9 9 2 2 6 8 10 13 4 4 2 0 11 17 14 14 12 9 5 2 4 5 7 4 2 1 1 3 4 2 2 5 9 8 13 17 17 17
6 7 9 11 13 13 16 18 13 10 2 7 9 13 12 9 2 2 2 9 14 12 11 14 7 3 3 3 5 8 4 3 2 2 2 1 4 4 4 9 10 15 16 17 15
6 5 7 8 11 11 10 10 14 13 6 5 6 11 5 7 5 2 2 9 11 10 9 13 5 2 1 7 5 4 5 4 2 1 4 2 8 2 7 13 14 15 15 15 14
6 5 5 6 7 9 9 9 10 9 9 6 5 2 4 6 4 3 1 5 8 9 10 7 4 1 3 5 5 6 4 3 1 0 1 1 5 2 2 12 13 14 14 13 13
4 5 5 6 7 8 8 6 9 9 9 7 6 4 2 3 1 4 6 8 7 12 6 5 3 3 3 3 6 5 5 1 2 1 2 1 8 7 4 9 14 12 12 12 12
4 3 4 5 6 7 8 4 4 3 4 3 5 4 1 5 6 5 6 9 9 5 3 1 5 3 5 5 5 6 5 4 1 1 3 5 6 11 11 9 13 15 13 14 13
7 5 4 2 4 4 5 3 7 9 6 9 5 4 3 5 4 4 9 3 4 3 3 5 3 2 4 4 6 4 4 2 1 1 2 3 10 11 5 9 17 19 16 16 16
7 8 6 2 2 1 1 0 3 4 3 2 5 6 1 5 3 6 10 3 4 2 1 5 3 1 3 2 5 3 4 3 2 1 2 5 8 4 0 4 6 9 14 17 17
8 7 8 4 2 3 2 1 1 1 3 3 1 1 3 5 3 5 4 2 4 4 3 5 3 2 4 4 2 3 1 2 5 3 3 3 5 5 3 5 3 4 9 14 19
9 12 6 6 1 2 3 3 1 3 5 7 3 2 2 2 8 1 4 2 4 3 3 2 3 4 5 2 1 3 2 4 3 4 3 3 3 7 4 4 5 5 5 13 17
8 14 3 5 6 6 3 2 3 6 2 5 3 2 2 2 2 4 2 4 5 5 6 2 2 3 2 3 3 6 5 7 4 3 2 2 4 6 2 2 4 2 5 12 16
7 10 6 4 3 3 3 4 5 6 4 5 3 4 2 3 3 3 3 4 2 5 3 5 3 3 3 5 3 4 6 3 3 4 5 2 2 9 4 3 2 4 8 12 15
3 6 6 4 3 1 3 4 7 3 2 3 3 1 3 3 3 3 3 2 3 5 3 4 3 3 5 2 4 2 4 5 5 3 4 2 5 5 3 3 2 3 8 12 13
2 6 6 5 3 1 1 5 5 4 1 1 2 2 3 2 3 4 3 2 1 1 3 4 2 3 3 2 2 3 1 4 7 2 3 2 7 6 4 4 2 3 8 11 12
1 3 11 6 1 1 4 1 2 2 2 1 2 1 2 2 1 1 1 2 1 1 0 5 4 1 2 1 4 1 5 4 3 3 4 5 5 6 2 5 1 1 7 8 8
1 1 11 6 1 3 4 3 2 2 4 3 2 1 2 3 2 1 1 1 1 3 1 3 3 2 1 4 6 2 0 4 3 3 5 1 6 5 5 3 5 5 7 7 4
3 2 10 3 3 3 2 3 2 1 1 1 2 3 2 3 3 4 5 4 2 2 3 1 4 3 2 2 1 1 3 4 4 5 1 2 6 1 2 1 8 8 8 8 6
3 3 7 4 3 2 2 3 2 2 2 1 2 2 3 4 3 2 3 2 2 1 3 4 0 3 5 3 3 3 4 4 4 3 6 5 5 2 3 5 7 13 11 11 9
4 3 4 6 5 4 2 0 2 2 2 1 1 1 1 3 3 1 3 3 4 2 3 2 2 5 6 3 4 4 4 5 4 3 4 6 4 5 5 7 10 13 13 11 9
5 1 2 3 4 3 1 1 0 1 1 1 2 1 3 2 1 0 0 2 2 3 3 2 2 1 3 3 2 4 4 8 9 6 7 4 9 4 9 10 18 15 13 11 8
4 0 2 2 1 1 3 2 2 1 2 2 1 1 1 2 4 5 5 4 2 2 2 4 1 2 2 2 4 5 7 8 8 3 8 2 13 7 2 13 16 17 15 12 9
3 2 2 1 1 1 3 2 1 2 1 1 2 1 2 3 4 2 4 4 4 6 5 3 4 2 3 3 5 6 8 10 5 5 7 8 6 5 3 10 19 19 15 12 9
Wind_Direction
20 27 31 28 9 347 327 301 273 241 233 222 221 230 228 229 238 240 234 229 233 247 239 207 203 192 176 169 163 159 111 200 223 159 225 167 136 153 154 144 176 189 180 186 176
26 30 33 33 21 7 349 325 265 242 237 233 230 230 233 230 244 249 249 230 229 217 224 203 198 180 175 176 172 144 150 209 222 183 226 179 167 160 158 158 195 191 192 181 179
29 30 28 35 35 20 360 339 320 243 233 230 229 225 214 216 258 271 256 217 219 215 209 195 181 170 176 171 182 169 188 215 216 207 169 174 160 174 147 230 202 198 193 181 183
23 20 31 31 29 16 357 331 289 281 231 229 219 203 188 180 196 340 247 196 204 201 194 182 170 176 153 169 182 170 232 235 156 175 157 175 157 182 185 202 223 210 202 185 187
6 4 6 11 18 18 18 41 359 207 207 187 185 184 168 195 240 328 257 198 199 200 193 183 172 165 179 174 139 193 169 146 95 115 152 157 157 194 219 220 195 193 188 189 189
346 349 356 353 10 23 34 48 37 56 203 180 180 176 180 207 224 325 4 197 202 198 194 184 183 191 168 183 165 190 121 93 32 99 99 154 149 197 222 213 199 193 188 189 192
332 341 349 350 0 18 25 45 29 33 76 162 175 181 201 222 215 244 14 177 199 203 201 184 167 182 160 140 149 130 94 38 26 341 31 62 284 212 235 202 197 188 190 192 196
300 332 338 351 357 6 11 5 16 32 18 148 168 188 238 219 215 246 283 193 192 194 199 194 201 240 176 136 64 84 58 122 306 86 343 97 255 339 228 207 201 193 196 204 209
298 283 299 324 341 360 2 11 27 31 29 86 97 173 271 204 216 250 214 187 182 179 161 187 193 178 125 108 60 18 162 186 227 173 59 126 263 334 261 207 210 205 212 219 218
296 293 285 293 312 343 1 46 68 80 62 92 10 310 291 185 154 187 153 147 148 161 165 181 162 78 48 88 177 155 116 245 193 207 69 272 262 275 318 216 222 223 224 222 211
288 300 285 284 300 327 348 46 48 341 317 241 300 283 64 127 108 152 158 150 144 171 144 131 82 167 192 170 147 126 113 146 234 4 159 239 264 271 266 240 228 225 220 215 204
286 274 273 275 297 315 326 69 110 73 2 34 110 353 103 132 106 120 158 175 140 144 127 38 113 176 120 100 109 112 116 166 9 70 138 351 281 259 221 235 234 230 220 215 210
313 272 258 261 269 268 204 237 104 146 165 321 335 33 77 143 160 132 159 152 126 114 100 131 168 179 129 107 94 46 141 169 145 71 67 336 296 266 69 245 252 243 235 227 218
14 313 250 237 237 239 266 316 286 291 86 326 260 170 177 175 67 155 199 167 37 138 120 91 318 130 95 92 82 139 193 138 121 94 217 14 272 304 342 291 268 264 231 216 204
17 2 265 222 229 226 290 298 259 168 57 315 329 59 82 168 141 96 166 126 123 89 91 296 22 67 76 95 349 144 99 94 82 96 66 6 65 271 356 298 270 236 226 198 193
353 11 0 258 256 262 250 217 146 46 311 343 324 357 88 29 80 118 86 82 113 79 34 68 30 52 75 48 33 154 79 48 57 78 26 331 120 284 273 267 316 259 207 186 186
318 357 3 313 299 216 208 176 41 87 331 324 336 17 35 25 50 64 43 31 116 81 6 17 355 352 45 74 23 69 65 15 9 8 216 272 46 247 264 257 285 303 204 181 180
352 24 24 46 344 316 159 49 72 195 225 311 309 313 67 359 33 35 94 68 33 78 106 139 330 12 355 56 177 73 137 147 192 186 264 352 241 253 244 264 307 324 189 179 184
123 36 23 36 69 296 18 48 177 211 221 326 353 34 18 55 116 77 35 160 199 161 124 136 20 330 38 2 71 178 125 143 106 19 44 237 285 296 257 265 10 62 167 178 183
228 284 8 330 16 199 80 96 306 268 329 266 131 156 159 338 65 96 189 342 7 49 102 189 96 5 321 67 43 190 154 75 0 169 248 288 277 238 233 233 160 173 181 167 175
5 217 357 359 343 80 105 174 227 358 2 322 294 146 141 149 122 98 163 29 40 321 74 144 101 265 8 206 183 132 149 51 115 130 174 250 262 211 215 233 185 150 149 157 166
345 27 360 18 27 33 103 185 270 243 97 42 13 327 281 183 143 170 197 185 183 186 150 185 124 143 211 295 297 260 212 157 129 214 99 139 275 198 287 330 161 130 120 124 127
12 1 4 29 81 15 315 330 322 342 335 58 103 115 18 353 319 182 185 131 36 150 157 179 100 58 356 359 353 221 198 130 108 91 201 149 259 73 74 96 140 147 149 142 132
6 23 31 50 56 122 143 124 325 322 311 300 257 136 102 39 41 316 351 357 2 46 81 126 130 173 188 186 131 195 199 188 146 136 182 223 265 218 208 189 178 168 156 145 133
21 98 60 331 10 20 359 188 205 304 223 291 337 62 156 136 352 99 61 342 26 10 30 73 228 90 276 253 219 220 187 182 199 191 183 236 207 236 215 202 191 175 160 149 134
356 17 127 142 222 93 359 304 296 250 195 269 242 217 226 205 200 191 160 196 222 45 54 3 277 89 302 24 233 265 245 222 233 249 276 338 277 216 275 190 177 180 175 167 154
351 343 296 237 110 89 204 176 260 354 250 256 237 139 248 243 198 200 203 163 170 163 165 135 138 108 262 315 297 286 226 203 188 201 185 221 243 175 187 187 188 181 179 174 164
Height
1503 1498 1494 1493 1492 1491 1489 1489 1489 1490 1490 1491 1493 1496 1498 1500 1501 1502 1501 1506 1507 1508 1509 1509 1511 1513 1515 1517 1519 1522 1531 1534 1525 1529 1519 1518 1519 1522 1524 1526 1528 1529 1529 1531 1532
1504 1500 1496 1494 1493 1491 1490 1488 1488 1489 1489 1490 1492 1494 1496 1499 1499 1498 1501 1503 1505 1507 1508 1508 1510 1512 1515 1516 1518 1519 1529 1525 1518 1516 1517 1516 1517 1520 1524 1526 1527 1528 1529 1530 1532
1505 1502 1499 1496 1495 1493 1490 1488 1488 1488 1488 1489 1491 1493 1496 1497 1500 1496 1498 1500 1503 1505 1507 1508 1509 1512 1514 1515 1516 1517 1522 1516 1514 1514 1516 1517 1518 1520 1522 1526 1523 1524 1526 1528 1531
1507 1504 1502 1499 1496 1493 1488 1487 1487 1487 1488 1489 1491 1493 1495 1498 1502 1495 1494 1498 1502 1504 1507 1507 1509 1511 1512 1514 1514 1516 1513 1514 1514 1514 1515 1517 1518 1519 1520 1521 1521 1523 1525 1527 1529
1508 1505 1502 1499 1497 1493 1487 1487 1487 1487 1488 1489 1491 1493 1495 1498 1496 1495 1495 1497 1500 1503 1506 1507 1508 1510 1511 1511 1513 1515 1513 1514 1514 1514 1515 1516 1518 1519 1519 1520 1521 1522 1524 1527 1530
1507 1506 1504 1501 1498 1496 1491 1490 1490 1489 1489 1490 1491 1493 1496 1498 1495 1495 1495 1497 1500 1502 1504 1507 1508 1509 1510 1510 1511 1511 1513 1514 1514 1515 1516 1516 1518 1519 1518 1519 1521 1522 1524 1527 1531
1507 1505 1504 1502 1500 1498 1497 1494 1493 1491 1490 1490 1492 1494 1496 1495 1495 1496 1496 1498 1501 1503 1504 1506 1507 1508 1508 1509 1510 1511 1515 1515 1515 1516 1516 1515 1517 1518 1517 1518 1520 1522 1525 1528 1531
1506 1504 1504 1503 1501 1500 1498 1497 1496 1494 1492 1492 1494 1496 1495 1494 1495 1496 1497 1498 1500 1502 1505 1507 1507 1507 1508 1509 1511 1515 1518 1525 1517 1517 1517 1517 1523 1515 1516 1517 1519 1522 1525 1528 1530
1505 1504 1503 1503 1502 1501 1499 1498 1497 1496 1495 1493 1495 1497 1495 1494 1495 1495 1497 1498 1500 1502 1505 1507 1507 1507 1508 1512 1520 1522 1529 1524 1519 1518 1519 1520 1519 1514 1515 1517 1519 1522 1525 1527 1529
1503 1503 1502 1502 1502 1501 1500 1499 1499 1498 1498 1498 1497 1500 1495 1495 1495 1495 1497 1498 1500 1503 1506 1508 1507 1509 1511 1516 1529 1524 1525 1523 1521 1520 1521 1522 1522 1515 1515 1516 1518 1521 1523 1525 1527
1503 1502 1501 1501 1500 1501 1500 1500 1503 1502 1499 1499 1499 1497 1495 1496 1497 1498 1499 1500 1501 1504 1506 1506 1513 1517 1510 1509 1511 1516 1519 1521 1522 1521 1522 1524 1524 1515 1514 1515 1516 1518 1520 1523 1525
1503 1502 1501 1499 1500 1501 1500 1501 1501 1505 1501 1498 1499 1497 1497 1497 1498 1498 1500 1503 1502 1506 1505 1510 1514 1509 1509 1509 1511 1513 1518 1521 1522 1522 1523 1523 1520 1513 1510 1509 1510 1512 1516 1519 1521
1503 1502 1501 1500 1499 1500 1500 1501 1501 1502 1503 1500 1498 1498 1498 1499 1499 1499 1501 1502 1503 1504 1505 1512 1511 1509 1510 1512 1514 1520 1519 1521 1521 1524 1525 1525 1518 1509 1508 1508 1508 1509 1511 1514 1517
1503 1501 1500 1499 1501 1499 1499 1500 1500 1501 1509 1502 1500 1499 1499 1498 1500 1500 1501 1503 1503 1507 1508 1511 1510 1509 1512 1515 1516 1517 1521 1521 1524 1529 1540 1532 1537 1514 1511 1509 1508 1507 1507 1509 1513
1502 1500 1500 1499 1499 1499 1501 1499 1500 1501 1535 1503 1499 1499 1498 1500 1500 1501 1501 1501 1505 1507 1510 1516 1513 1512 1514 1517 1517 1519 1521 1523 1527 1535 1537 1534 1551 1517 1514 1508 1508 1507 1506 1508 1512
1503 1501 1499 1499 1499 1499 1499 1499 1501 1515 1528 1506 1500 1499 1499 1499 1500 1500 1501 1502 1505 1508 1511 1517 1515 1516 1518 1519 1518 1520 1523 1530 1539 1543 1560 1545 1552 1530 1516 1510 1507 1506 1507 1509 1512
1504 1502 1500 1499 1500 1499 1499 1500 1514 1526 1511 1508 1504 1500 1500 1501 1501 1501 1504 1508 1511 1523 1529 1519 1520 1519 1518 1520 1521 1523 1531 1562 1555 1567 1555 1550 1557 1523 1510 1508 1508 1506 1507 1509 1513
1505 1503 1501 1499 1500 1500 1500 1503 1518 1510 1510 1507 1504 1501 1502 1501 1502 1504 1506 1511 1510 1513 1527 1531 1535 1523 1522 1522 1523 1526 1528 1550 1548 1559 1556 1548 1541 1518 1509 1507 1507 1505 1506 1509 1512
1505 1505 1503 1501 1500 1500 1502 1518 1513 1510 1508 1506 1503 1504 1503 1501 1503 1505 1510 1512 1511 1511 1516 1522 1525 1524 1523 1523 1524 1525 1534 1533 1553 1559 1557 1550 1527 1511 1507 1507 1506 1506 1507 1510 1513
1505 1505 1504 1502 1500 1501 1503 1514 1513 1510 1509 1508 1504 1504 1506 1505 1505 1505 1509 1511 1510 1511 1511 1514 1526 1527 1525 1524 1525 1524 1529 1537 1549 1536 1535 1544 1534 1525 1508 1507 1507 1508 1508 1511 1513
1505 1504 1504 1502 1502 1501 1516 1514 1510 1510 1510 1510 1507 1505 1504 1504 1506 1510 1511 1513 1512 1511 1511 1513 1517 1530 1526 1526 1526 1530 1530 1536 1537 1541 1536 1538 1532 1513 1512 1508 1507 1508 1509 1511 1513
1505 1505 1504 1502 1505 1509 1512 1510 1510 1507 1506 1508 1509 1508 1505 1505 1505 1508 1508 1508 1510 1511 1511 1513 1522 1540 1523 1525 1525 1524 1523 1527 1532 1534 1551 1549 1534 1507 1507 1507 1507 1510 1511 1512 1513
1505 1506 1506 1503 1511 1516 1513 1512 1511 1509 1509 1507 1507 1508 1508 1509 1507 1507 1508 1510 1509 1510 1510 1511 1518 1542 1526 1528 1525 1524 1524 1527 1533 1537 1544 1539 1520 1508 1507 1508 1509 1510 1511 1512 1513
1506 1508 1507 1506 1509 1509 1511 1511 1511 1510 1509 1508 1508 1506 1506 1508 1511 1510 1511 1512 1511 1510 1510 1510 1518 1514 1522 1509 1519 1522 1522 1524 1523 1543 1530 1529 1508 1507 1508 1507 1508 1509 1511 1512 1513
1507 1510 1510 1514 1511 1513 1512 1510 1509 1509 1509 1509 1508 1507 1506 1507 1509 1509 1512 1511 1511 1511 1512 1513 1515 1521 1517 1515 1514 1512 1513 1521 1524 1515 1513 1504 1510 1500 1502 1503 1505 1509 1511 1512 1513
1511 1510 1509 1510 1509 1509 1513 1512 1511 1508 1509 1509 1509 1508 1508 1508 1506 1506 1508 1511 1509 1513 1514 1516 1517 1519 1512 1515 1518 1516 1515 1516 1516 1512 1515 1510 1505 1498 1498 1500 1505 1507 1510 1512 1513
1510 1510 1510 1510 1509 1511 1508 1508 1510 1511 1510 1508 1508 1509 1508 1506 1505 1505 1505 1505 1505 1508 1514 1516 1522 1523 1514 1519 1515 1512 1504 1505 1505 1505 1502 1506 1494 1495 1498 1498 1500 1505 1509 1512 1514